FW6661 Weather Reports


time (UTC)temp
C
wind
direction
speed
KPH
gust
KPH
rain 1hr
cm
rain 24hr
cm
rain mn
cm
humidity
%
barometer
mb
20211017144550 13 225 1.6 1.6 0.00 0.00 0.00 52 993.5
20211017143554 13 55 1.6 1.6 0.00 0.00 0.00 55 993.6
20211017142550 13 135 0.0 1.6 0.00 0.00 0.00 56 993.6
20211017141549 13 225 1.6 3.2 0.00 0.00 0.00 52 993.6
20211017140553 13 109 1.6 1.6 0.00 0.00 0.00 54 993.6
20211017135549 12 135 0.0 0.0 0.00 0.00 0.00 57 993.6
20211017134551 12 73 0.0 0.0 0.00 0.00 0.00 58 993.7
20211017133553 12 48 0.0 0.0 0.00 0.00 0.00 63 993.7
20211017132550 11 68 0.0 0.0 0.00 0.00 0.00 68 993.8
20211017131552 11 90 0.0 0.0 0.00 0.00 0.00 74 993.8
20211017130551 10 180 0.0 0.0 0.00 0.00 0.00 77 993.8
20211017125553 9 45 0.0 0.0 0.00 0.00 0.00 84 993.8
20211017124556 8 83 0.0 1.6 0.00 0.00 0.00 88 993.7
20211017123551 8 0 0.0 0.0 0.00 0.00 0.00 87 993.6
20211017122552 8 135 0.0 0.0 0.00 0.00 0.00 86 993.5
20211017121551 8 0 0.0 0.0 0.00 0.00 0.00 85 993.4
20211017120548 8 0 0.0 0.0 0.00 0.00 0.00 86 993.3
20211017115559 8 135 0.0 0.0 0.00 0.00 0.00 83 993.4
20211017114550 8 135 0.0 0.0 0.00 0.00 0.00 85 993.2
20211017113553 8 0 0.0 0.0 0.00 0.00 0.00 84 993.2
20211017112549 7 152 0.0 0.0 0.00 0.00 0.00 84 993.3
20211017111551 8 0 0.0 1.6 0.00 0.00 0.00 84 993.3
20211017110552 8 35 1.6 1.6 0.00 0.00 0.00 83 993.1
20211017105551 8 0 0.0 0.0 0.00 0.00 0.00 81 993.2
20211017104614 8 0 0.0 0.0 0.00 0.00 0.00 79 993.0
20211017103550 8 135 0.0 0.0 0.00 0.00 0.00 79 992.8
20211017102546 8 0 0.0 0.0 0.00 0.00 0.00 79 992.8
20211017101546 9 0 0.0 0.0 0.00 0.00 0.00 75 992.7
20211017100549 10 315 1.6 1.6 0.00 0.00 0.00 75 992.7
20211017095557 9 0 0.0 0.0 0.00 0.00 0.00 76 992.7
20211017094545 9 259 0.0 0.0 0.00 0.00 0.00 74 992.8
20211017093550 9 0 0.0 0.0 0.00 0.00 0.00 73 992.8
20211017092548 9 0 0.0 0.0 0.00 0.00 0.00 76 992.8
20211017091546 9 0 0.0 0.0 0.00 0.00 0.00 74 992.8
20211017090604 9 0 0.0 0.0 0.00 0.00 0.00 73 992.8
20211017085549 9 0 0.0 0.0 0.00 0.00 0.00 72 992.8
20211017084555 9 135 0.0 0.0 0.00 0.00 0.00 70 992.8
20211017083549 10 0 0.0 0.0 0.00 0.00 0.00 72 992.6
20211017082548 9 135 0.0 0.0 0.00 0.00 0.00 73 992.6
20211017081549 10 135 0.0 0.0 0.00 0.00 0.00 76 992.4
20211017080549 10 135 0.0 0.0 0.00 0.00 0.00 72 992.4
20211017075601 10 0 0.0 0.0 0.00 0.00 0.00 66 992.4
20211017074548 10 0 0.0 0.0 0.00 0.00 0.00 70 992.4
20211017073550 11 0 0.0 0.0 0.00 0.00 0.00 71 992.3
20211017072549 11 0 0.0 0.0 0.00 0.00 0.00 62 992.3
20211017071545 11 94 0.0 1.6 0.00 0.00 0.00 66 992.4
20211017070548 11 225 1.6 1.6 0.00 0.00 0.00 71 992.4
20211017065546 11 0 0.0 0.0 0.00 0.00 0.00 73 992.5
20211017064548 11 0 0.0 0.0 0.00 0.00 0.00 75 992.4
20211017063548 11 135 0.0 0.0 0.00 0.00 0.00 70 992.5
20211017062549 11 135 1.6 1.6 0.00 0.00 0.00 79 992.4
20211017061547 11 28 1.6 1.6 0.00 0.00 0.00 78 992.4
20211017060556 11 0 0.0 0.0 0.00 0.00 0.00 78 992.3
20211017055548 11 135 0.0 0.0 0.00 0.00 0.00 76 992.2
20211017054548 11 0 0.0 0.0 0.00 0.00 0.00 75 992.3
20211017053548 11 0 0.0 0.0 0.00 0.00 0.00 75 992.3
20211017052549 11 126 1.6 3.2 0.00 0.00 0.00 73 992.0
20211017051546 11 0 0.0 0.0 0.00 0.00 0.00 77 992.1
20211017050544 11 225 0.0 0.0 0.00 0.00 0.00 74 992.0
20211017045544 12 135 0.0 0.0 0.00 0.00 0.00 72 991.8
20211017044546 11 135 0.0 0.0 0.00 0.00 0.00 78 991.8
20211017043549 11 135 0.0 0.0 0.00 0.00 0.00 82 991.8
20211017042548 11 135 0.0 0.0 0.00 0.00 0.00 80 991.6
20211017041547 11 195 0.0 1.6 0.00 0.00 0.00 86 991.8
20211017040551 11 322 1.6 1.6 0.00 0.00 0.00 88 991.7
20211017035548 10 135 0.0 0.0 0.00 0.05 0.00 87 991.8
20211017034548 11 117 1.6 1.6 0.00 0.05 0.00 85 991.5
20211017033555 10 135 0.0 1.6 0.00 0.05 0.00 89 991.6
20211017032556 11 135 0.0 0.0 0.00 0.05 0.00 89 991.6
20211017031551 10 135 1.6 3.2 0.00 0.05 0.00 88 991.3
20211017030553 11 0 0.0 0.0 0.00 0.05 0.00 86 991.5
20211017025557 11 0 0.0 0.0 0.00 0.05 0.00 82 991.3
20211017024550 11 90 0.0 0.0 0.00 0.05 0.00 82 991.4
20211017023601 11 0 0.0 0.0 0.00 0.05 0.00 84 991.3
20211017022555 11 315 1.6 1.6 0.00 0.05 0.00 82 991.3
20211017021557 11 0 0.0 0.0 0.00 0.05 0.00 77 991.1
20211017020555 12 0 0.0 0.0 0.00 0.05 0.00 75 990.9
20211017015555 12 0 0.0 0.0 0.00 0.05 0.00 75 990.8
20211017014547 12 0 0.0 0.0 0.00 0.05 0.00 69 990.8
20211017013545 13 0 0.0 0.0 0.00 0.05 0.00 69 990.6
20211017012543 13 0 0.0 0.0 0.00 0.05 0.00 61 990.6
20211017011536 13 14 0.0 1.6 0.00 0.05 0.00 66 990.5
20211017010538 13 45 1.6 3.2 0.00 0.05 0.00 60 990.3
20211017005534 14 225 0.0 0.0 0.00 0.05 0.00 65 990.2
20211017004533 15 315 0.0 0.0 0.00 0.05 0.00 56 990.0
20211017003536 15 271 1.6 1.6 0.00 0.05 0.00 52 989.9
20211017002533 15 248 1.6 3.2 0.00 0.05 0.00 52 989.7
20211017001620 16 225 3.2 3.2 0.00 0.05 0.00 47 989.5
20211017000530 15 45 3.2 4.8 0.00 0.05 0.00 50 989.3
20211016235529 15 23 1.6 1.6 0.00 0.05 0.00 58 989.3
20211016234530 15 225 3.2 4.8 0.00 0.05 0.00 54 989.0
20211016233524 15 225 1.6 1.6 0.00 0.05 0.00 57 988.8
20211016232531 16 232 0.0 1.6 0.00 0.05 0.00 52 988.4
20211016231530 16 250 3.2 3.2 0.00 0.05 0.00 52 988.2
20211016230525 16 225 1.6 3.2 0.00 0.05 0.00 58 988.1
20211016225536 16 0 1.6 3.2 0.00 0.05 0.00 58 987.8
20211016224539 16 292 1.6 1.6 0.00 0.05 0.00 52 987.7
20211016223534 16 23 1.6 3.2 0.00 0.05 0.00 62 987.5
20211016222540 17 285 0.0 1.6 0.00 0.05 0.00 55 987.3
20211016221542 17 277 1.6 1.6 0.00 0.05 0.00 52 987.2
20211016220532 17 23 3.2 3.2 0.00 0.05 0.00 57 987.0
20211016215536 17 23 1.6 3.2 0.00 0.05 0.00 52 987.0
20211016214537 17 0 1.6 4.8 0.00 0.05 0.00 56 986.9
20211016213528 18 293 1.6 3.2 0.00 0.05 0.00 57 986.7
20211016212534 18 0 0.0 0.0 0.00 0.05 0.00 61 986.5
20211016211537 18 248 1.6 1.6 0.00 0.05 0.00 62 986.2
20211016210537 18 293 1.6 1.6 0.00 0.05 0.00 63 986.1
20211016205536 18 315 1.6 1.6 0.00 0.05 0.00 69 985.9
20211016204536 18 23 0.0 0.0 0.00 0.05 0.00 73 985.5
20211016203530 19 225 1.6 1.6 0.00 0.05 0.00 75 985.3
20211016202532 20 315 0.0 1.6 0.00 0.05 0.00 71 984.9
20211016201532 20 225 1.6 1.6 0.00 0.05 0.00 78 984.6
20211016200532 20 225 1.6 3.2 0.00 0.05 0.00 70 984.3
20211016195527 19 225 0.0 0.0 0.00 0.05 0.00 89 984.2
20211016194528 19 0 0.0 0.0 0.00 0.05 0.00 98 984.0
20211016193519 19 0 0.0 0.0 0.00 0.05 0.00 97 984.1
20211016192525 18 293 1.6 1.6 0.00 0.05 0.00 96 984.1
20211016191524 18 225 0.0 1.6 0.00 0.05 0.00 100 984.1
20211016190532 18 252 0.0 0.0 0.00 0.05 0.00 100 984.1
20211016185526 18 0 1.6 1.6 0.03 0.05 0.00 100 984.1
20211016184526 18 225 1.6 1.6 0.03 0.05 0.00 100 984.0
20211016183519 18 0 0.0 0.0 0.03 0.05 0.00 100 984.3
20211016182527 18 0 0.0 0.0 0.03 0.05 0.00 100 984.2
20211016181528 18 0 0.0 0.0 0.03 0.05 0.00 100 984.1
20211016180523 17 225 0.0 0.0 0.03 0.05 0.00 100 984.0
20211016175528 17 225 1.6 1.6 0.03 0.03 0.00 100 984.4
20211016174529 17 225 0.0 0.0 0.03 0.03 0.00 100 984.0
20211016173530 18 23 1.6 1.6 0.03 0.03 0.00 99 984.0
20211016172532 18 293 0.0 0.0 0.03 0.03 0.00 100 984.0
20211016171535 19 225 0.0 1.6 0.03 0.03 0.00 100 983.9
20211016170535 20 0 0.0 0.0 0.03 0.03 0.00 100 983.5
20211016165546 21 0 0.0 0.0 0.00 0.00 0.00 96 983.5
20211016164532 21 279 1.6 1.6 0.00 0.00 0.00 91 983.5
20211016163533 22 225 1.6 1.6 0.00 0.00 0.00 87 983.4
20211016162532 22 236 0.0 1.6 0.00 0.00 0.00 84 983.2
20211016161528 23 244 1.6 1.6 0.00 0.00 0.00 79 983.1
20211016160533 23 23 0.0 0.0 0.00 0.00 0.00 80 983.2
20211016155528 24 225 1.6 1.6 0.00 0.00 0.00 74 983.1
20211016154531 24 225 0.0 1.6 0.00 0.00 0.00 75 983.0
20211016153529 23 225 1.6 1.6 0.00 0.00 0.00 75 983.1
20211016152529 23 225 1.6 1.6 0.00 0.00 0.00 80 983.4
20211016151529 23 225 0.0 1.6 0.00 0.00 0.00 81 983.4
20211016150523 22 0 0.0 0.0 0.00 0.00 0.00 89 983.5
20211016145530 22 259 0.0 0.0 0.00 0.00 0.00 87 983.5